Pineville, WV

8:35 PM EST on December 13, 2019 (GMT -0500)
Pineville

Weather History for KI16 - June, 2019

Change the Weather History Date:

Friday, June 7, 2019

  Actual Average (WUND) Record (WUND)
Temperature  
Mean Temperature 68 °F -  
Max Temperature 71 °F - - (-1)
Min Temperature 65 °F - - (-1)
Cooling Degree Days 3    
Growing Degree Days 18 (Base 50)    
Moisture  
Dew Point 66 °F    
Average Humidity 93    
Maximum Humidity 98    
Minimum Humidity 81    
Precipitation  
Precipitation 0.00 in - - ()
Sea Level Pressure  
Sea Level Pressure 29.93 in    
Wind  
Wind Speed - (North)    
Max Wind Speed -    
Max Gust Speed -    
Visibility 7 miles    
Events Rain    
Averages and records for this station are not official NWS values.
T = Trace of Precipitation, MM = Missing Value Source: NWS Daily Summary

Daily Weather History Graph

Daily Weather History Graph

Search for Another Location

Airport or City:

Astronomy

Jun. 07, 2019 Rise Set
Actual Time 6:04 AM EDT 8:45 PM EDT
Civil Twilight 5:34 AM EDT 9:16 PM EDT
Nautical Twilight 4:55 AM EDT 9:55 PM EDT
Astronomical Twilight 4:12 AM EDT 10:38 PM EDT
Moon 10:19 AM EDT (6/7) 12:02 AM EDT (6/7)
Length of Visible Light 15h 42m
Length of Day
14h 40m
Waxing Crescent, 22% of the Moon is Illuminated
Jun 7
Waxing Crescent
Jun 10
First Quarter
Jun 17
Full
Jun 25
Last Quarter
Jul 2
New

Hourly Weather History & Observations

Time (EDT) Temp. Dew Point Humidity Pressure Visibility Wind Dir Wind Speed Gust Speed Precip Events Conditions
12:15 AM 67.1 °F 66.2 °F 97% 29.97 in 4.0 mi North - - N/A   Light Drizzle
12:35 AM 67.1 °F 66.2 °F 97% 29.96 in 3.0 mi North - - N/A   Light Drizzle
12:55 AM 67.1 °F 66.2 °F 97% 29.96 in 3.0 mi North - - N/A   Overcast
1:15 AM 67.3 °F 66.4 °F 97% 29.96 in 3.0 mi North - - N/A Rain Rain
1:35 AM 67.3 °F 66.4 °F 97% 29.95 in 3.0 mi North - - N/A Rain Light Rain
1:55 AM 68.0 °F 67.1 °F 97% 29.94 in 2.5 mi North - - N/A   Light Drizzle
2:15 AM 67.6 °F 66.7 °F 97% 29.93 in 3.0 mi North - - N/A   Overcast
2:35 AM 67.3 °F 66.4 °F 97% 29.93 in 7.0 mi North - - N/A   Overcast
2:55 AM 67.1 °F 66.2 °F 97% 29.93 in 4.0 mi North - - N/A   Light Drizzle
3:15 AM 67.3 °F 66.4 °F 97% 29.93 in 5.0 mi North - - N/A Rain Light Rain
3:35 AM 67.1 °F 66.2 °F 97% 29.93 in 7.0 mi North - - N/A Rain Light Rain
3:55 AM 66.6 °F 65.7 °F 97% 29.92 in 3.0 mi North - - N/A Rain Light Rain
4:15 AM 66.6 °F 65.7 °F 97% 29.92 in 2.5 mi North - - N/A Rain Rain
4:40 AM 66.4 °F 65.5 °F 97% 29.92 in 4.0 mi North - - N/A Rain Light Rain
4:55 AM 66.2 °F 65.3 °F 97% 29.92 in 4.0 mi North - - N/A   Drizzle
5:15 AM 66.2 °F 65.3 °F 97% 29.92 in 3.0 mi North - - N/A   Light Drizzle
5:35 AM 66.2 °F 65.3 °F 97% 29.92 in 5.0 mi North - - N/A   Overcast
5:55 AM 66.0 °F 65.1 °F 97% 29.92 in 4.0 mi North - - N/A   Overcast
6:15 AM 65.8 °F 64.9 °F 97% 29.92 in 4.0 mi North - - N/A   Overcast
6:35 AM 65.8 °F 64.9 °F 97% 29.93 in 4.0 mi North - - N/A   Overcast
6:55 AM 66.0 °F 65.3 °F 98% 29.94 in 3.0 mi North - - N/A   Drizzle
7:15 AM 66.6 °F 65.8 °F 98% 29.94 in 5.0 mi North - - N/A Rain Rain
7:35 AM 67.1 °F 66.2 °F 97% 29.93 in 7.0 mi North - - N/A Rain Light Rain
7:55 AM 67.5 °F 66.6 °F 97% 29.93 in 7.0 mi North - - N/A Rain Rain
8:15 AM 68.0 °F 67.1 °F 97% 29.93 in 5.0 mi North - - N/A   Overcast
8:35 AM 68.2 °F 67.3 °F 97% 29.93 in 4.0 mi North - - N/A   Overcast
8:55 AM 68.9 °F 68.0 °F 97% 29.93 in 7.0 mi North - - N/A   Overcast
9:15 AM 69.1 °F 68.0 °F 96% 29.93 in 10.0 mi North - - N/A   Overcast
9:35 AM 69.8 °F 68.2 °F 95% 29.93 in 10.0 mi North - - N/A   Overcast
9:55 AM 70.0 °F 68.0 °F 93% 29.92 in 10.0 mi North - - N/A   Overcast
10:15 AM 70.9 °F 67.8 °F 90% 29.92 in 10.0 mi North - - N/A   Overcast
10:35 AM 70.9 °F 68.0 °F 91% 29.93 in 10.0 mi North - - N/A   Overcast
10:55 AM 71.2 °F 68.0 °F 89% 29.93 in 7.0 mi North - - N/A   Overcast
11:15 AM 71.2 °F 67.3 °F 87% 29.93 in 10.0 mi North - - N/A   Overcast
11:35 AM 70.7 °F 67.6 °F 90% 29.93 in 10.0 mi North - - N/A   Overcast
11:55 AM 71.6 °F 68.4 °F 89% 29.94 in 10.0 mi North - - N/A   Overcast
12:15 PM 71.4 °F 68.0 °F 89% 29.94 in 10.0 mi North - - N/A Rain Light Rain
12:35 PM 70.5 °F 68.5 °F 93% 29.94 in 7.0 mi North - - N/A Rain Rain
12:55 PM 70.7 °F 68.7 °F 93% 29.94 in 7.0 mi North - - N/A Rain Light Rain
1:15 PM 70.0 °F 68.2 °F 94% 29.94 in 3.0 mi North - - N/A Rain Light Rain
1:35 PM 69.8 °F 68.4 °F 95% 29.93 in 3.0 mi North - - N/A Rain Rain
1:55 PM 70.2 °F 68.9 °F 96% 29.93 in 4.0 mi North - - N/A Rain Light Rain
2:15 PM 70.7 °F 68.7 °F 93% 29.92 in 7.0 mi North - - N/A Rain Light Rain
2:35 PM 70.7 °F 67.6 °F 90% 29.92 in 7.0 mi North - - N/A Rain Light Rain
2:55 PM 70.0 °F 67.1 °F 91% 29.92 in 10.0 mi North - - N/A Rain Rain
3:15 PM 70.0 °F 67.6 °F 92% 29.92 in 10.0 mi North - - N/A Rain Rain
3:35 PM 70.5 °F 68.0 °F 92% 29.91 in 10.0 mi North - - N/A   Light Drizzle
3:55 PM 70.7 °F 67.8 °F 91% 29.92 in 10.0 mi North - - N/A Rain Rain
4:15 PM 70.7 °F 67.8 °F 91% 29.91 in 10.0 mi North - - N/A   Drizzle
4:35 PM 70.7 °F 67.8 °F 91% 29.91 in 10.0 mi North - - N/A   Light Drizzle
4:55 PM 71.2 °F 67.8 °F 89% 29.91 in 10.0 mi North - - N/A   Light Drizzle
5:15 PM 70.7 °F 67.3 °F 89% 29.91 in 7.0 mi North - - N/A Rain Light Rain
5:35 PM 70.2 °F 66.7 °F 89% 29.91 in 7.0 mi North - - N/A Rain Rain
5:55 PM 70.2 °F 67.1 °F 90% 29.91 in 7.0 mi North - - N/A Rain Light Rain
6:15 PM 69.8 °F 67.1 °F 91% 29.90 in 10.0 mi North - - N/A   Light Drizzle
6:35 PM 70.0 °F 67.1 °F 91% 29.91 in 10.0 mi North - - N/A   Light Drizzle
6:55 PM 69.8 °F 66.4 °F 89% 29.91 in 10.0 mi North - - N/A Rain Light Rain
7:15 PM 69.8 °F 65.3 °F 86% 29.91 in 10.0 mi North - - N/A   Overcast
7:35 PM 69.4 °F 64.8 °F 85% 29.92 in 10.0 mi North - - N/A   Overcast
7:55 PM 69.1 °F 63.7 °F 83% 29.92 in 10.0 mi North - - N/A   Overcast
8:15 PM 68.5 °F 63.7 °F 84% 29.92 in 10.0 mi North - - N/A   Overcast
8:35 PM 68.4 °F 62.8 °F 82% 29.93 in 10.0 mi North - - N/A Rain Rain
8:55 PM 68.2 °F 62.2 °F 81% 29.94 in 10.0 mi North - - N/A   Overcast
9:15 PM 67.3 °F 62.6 °F 85% 29.94 in 7.0 mi North - - N/A Rain Rain
9:35 PM 66.6 °F 63.5 °F 90% 29.94 in 10.0 mi North - - N/A   Overcast
9:55 PM 66.0 °F 63.9 °F 93% 29.94 in 10.0 mi North - - N/A   Overcast
10:15 PM 65.8 °F 64.4 °F 95% 29.95 in 7.0 mi North - - N/A   Overcast
10:35 PM 65.8 °F 64.8 °F 96% 29.96 in 7.0 mi North - - N/A   Overcast
10:55 PM 66.2 °F 65.3 °F 97% 29.96 in 10.0 mi North - - N/A   Overcast
11:15 PM 65.8 °F 64.9 °F 97% 29.95 in 10.0 mi North - - N/A   Overcast
11:35 PM 66.0 °F 65.1 °F 97% 29.95 in 10.0 mi North - - N/A   Overcast
11:55 PM 65.7 °F 64.8 °F 97% 29.95 in 7.0 mi North - - N/A   Overcast